Location: Brantley
(31.5822°N, 86.2569°W)
Time: 23:00:44
(UTC+00:00)

A-11 Canister half - Visible Passes

Search period start: 16 February 2026 00:00
Search period end: 26 February 2026 00:00
Orbit: 1525 x 1682 km, 47.3° (Epoch: 16 February)

Date Brightness Start Highest point End Pass type
(mag) Time Alt. Az. Time Alt. Az. Time Alt. Az.
16 Feb 9.9 00:04:24 10° W 00:12:53 37° NNW 00:21:22 10° NE visible
16 Feb 9.9 02:12:18 10° NW 02:20:18 31° N 02:20:45 31° NNE visible
16 Feb 11.0 04:17:51 10° NW 04:19:02 15° NW 04:19:02 15° NW visible
16 Feb 9.9 23:42:24 10° W 23:50:58 38° NNW 23:59:29 10° NE visible
17 Feb 9.9 01:50:22 10° NW 01:58:21 31° N 02:00:09 29° NNE visible
17 Feb 10.7 03:56:02 10° NW 03:58:26 20° NW 03:58:26 20° NW visible
18 Feb 10.0 01:28:27 10° NW 01:36:24 30° N 01:39:33 25° NE visible
18 Feb 10.4 03:34:12 10° NW 03:37:51 26° NW 03:37:51 26° NW visible
19 Feb 10.0 01:06:31 10° NW 01:14:26 30° N 01:18:58 21° NE visible
19 Feb 10.1 03:12:23 10° NW 03:17:15 32° NNW 03:17:15 32° NNW visible
20 Feb 10.0 00:44:34 10° NW 00:52:29 30° N 00:58:23 16° NE visible
20 Feb 9.8 02:50:33 10° NW 02:56:41 39° NNW 02:56:41 39° NNW visible
21 Feb 10.0 00:22:37 10° WNW 00:30:32 30° N 00:37:50 12° ENE visible
21 Feb 9.5 02:28:42 10° NW 02:36:07 44° N 02:36:07 44° N visible
21 Feb 11.1 04:33:43 10° WNW 04:34:24 13° WNW 04:34:24 13° WNW visible
22 Feb 10.1 00:00:40 10° WNW 00:08:34 30° N 00:16:28 10° ENE visible
22 Feb 9.3 02:06:52 10° NW 02:15:35 45° NNE 02:15:35 45° NNE visible
22 Feb 10.8 04:11:51 10° NW 04:13:52 19° WNW 04:13:52 19° WNW visible
23 Feb 9.3 01:45:02 10° NW 01:53:49 44° NNE 01:55:05 42° NE visible
23 Feb 10.5 03:50:01 10° NW 03:53:23 26° WNW 03:53:23 26° WNW visible
24 Feb 9.4 01:23:11 10° NW 01:31:54 42° NNE 01:34:36 35° ENE visible
24 Feb 10.1 03:28:09 10° NW 03:32:54 35° WNW 03:32:54 35° WNW visible
25 Feb 9.5 01:01:20 10° NW 01:10:00 41° NNE 01:14:11 28° ENE visible
25 Feb 9.6 03:06:18 10° NW 03:12:29 48° WNW 03:12:29 48° WNW visible
